map of CXI home
Great Circle Mapper logo
CXI - Airport
Location
City:  Christmas Island, Kiribati
Near (Alt.):Kiritimati
Name:Cassidy International Airport
ICAO / IATA:PLCH / CXI

Details
Type:Airport (Aerodrome, Airfield)
Use:International (customs port of entry)
Latitude:159'10"N (1.986161)
Longitude:15720'59"W (-157.349777)
Datum:WGS 1984
Elevation:5 ft (2 m)
Variation:9.03E (WMM2015 magnetic declination)
0.00 annual change
Runways:1
Longest:6900 × 98 ft (2103 × 30 m), paved

Time
Time Zone:UTC-10
Local Time:

Weather
METAR:PLCH 281200Z VRB03KT 9999 SCT018TCU 25/23 Q1009
TAF:PLCH 280950Z 2812/2912 10010KT 9999 -SHRA SCT020 BKN040 PROB30
TEMPO 2812/2818 7000 TSRA FEW018CB

Related Locations
Nearby:
Farthest:FZVE: 12398 mi / 19952 km
Lomela, CD

Find:

   beyond  
but within

Other Information
Maps:
NOTAMs:
Links:
Sources:

  
flag of Kiribati   

Sectional Chart

Flight Planning
at skyvector.com

Satellite Image

Google Maps Satellite View

 

Copyright © 2004-2015 Karl L. Swartz. All rights reserved.
The Great Circle Mapper name and logo are trademarks of the Great Circle Mapper.
All other trademarks mentioned herein belong to their respective owners.
Please see credits for attibutions and further copyright information.

  Follow gcmap on Facebook Follow gcmap on Twitter Follow gcmap on Google+

hCard Microformat

Geo Microformat